This is the latest recevied weather packets stored in our database for station/object DC1NF-7. If no packets are shown the sender has not sent any weather packets the latest 10 day(s).
| Time | Temp. | Humidity | Pressure | Rain* | Wind** | Luminosity | Snow |
|---|---|---|---|---|---|---|---|
| 1777311924 | 17.78° C | 33% | 1019.5 hPa | 0 mm | - | 39 W/m² | - |
| 1777311324 | 18.33° C | 33% | 1019.5 hPa | 0 mm | - | 49 W/m² | - |
| 1777310718 | 18.33° C | 32% | 1019.4 hPa | 0 mm | - | 63 W/m² | - |
| 1777310175 | 18.33° C | 31% | 1019.5 hPa | 0 mm | - | 81 W/m² | - |
| 1777309571 | 18.33° C | 33% | 1019.5 hPa | 0 mm | - | 100 W/m² | - |
| 1777308970 | 18.33° C | 34% | 1019.7 hPa | 0 mm | - | 86 W/m² | - |
| 1777308365 | 18.33° C | 31% | 1019.8 hPa | 0 mm | - | 98 W/m² | - |
| 1777307762 | 18.89° C | 30% | 1019.7 hPa | 0 mm | - | 124 W/m² | - |
| 1777307155 | 19.44° C | 30% | 1019.6 hPa | 0 mm | - | 155 W/m² | - |
| 1777306552 | 19.44° C | 29% | 1019.6 hPa | 0 mm | - | 160 W/m² | - |
| 1777305952 | 18.89° C | 31% | 1019.8 hPa | 0 mm | - | 170 W/m² | - |
| 1777305349 | 19.44° C | 29% | 1019.8 hPa | 0 mm | - | 208 W/m² | - |
| 1777304748 | 19.44° C | 28% | 1019.9 hPa | 0 mm | - | 250 W/m² | - |
| 1777304142 | 19.44° C | 27% | 1020 hPa | 0 mm | - | 254 W/m² | - |
| 1777303535 | 19.44° C | 28% | 1020.1 hPa | 0 mm | - | 322 W/m² | - |
| 1777302931 | 18.89° C | 30% | 1020 hPa | 0 mm | - | 347 W/m² | - |
| 1777302327 | 19.44° C | 29% | 1020.2 hPa | 0 mm | - | 307 W/m² | - |
| 1777301724 | 19.44° C | 28% | 1020.3 hPa | 0 mm | - | 366 W/m² | - |
| 1777301121 | 18.89° C | 31% | 1020.4 hPa | 0 mm | - | 432 W/m² | - |
| 1777300520 | 18.89° C | 30% | 1020.4 hPa | 0 mm | - | 366 W/m² | - |
| 1777299973 | 19.44° C | 29% | 1020.6 hPa | 0 mm | - | 431 W/m² | - |
| 1777299372 | 18.89° C | 29% | 1020.6 hPa | 0 mm | - | 400 W/m² | - |
| 1777298765 | 18.89° C | 29% | 1020.7 hPa | 0 mm | - | 421 W/m² | - |
| 1777298164 | 18.89° C | 27% | 1020.8 hPa | 0 mm | - | 458 W/m² | - |
| 1777297559 | 20.56° C | 29% | 1020.9 hPa | 0 mm | - | 386 W/m² | - |
* Rain latest hour (hover to see other rain measurements)
** Current wind speed in m/s (hover to see current wind gust speed)